Meteo Giornale » Osservazioni meteo Stati Uniti (USA) » Del Rio
ore: 15:53 - Osservazioni Meteo Del Rio
Lat. 29° 22' N Lon. 100° 55' W Alt. 304 metri s.l.m.
37 °C
Sereno
Temp. 24 Ore
26 °C
38 °C
Sud-Est
16.7 Km/h
Dew point 21 °C
Umidità 39 %
Visibilità 10 Km
Il sole sorge alle ore 07:20
Il sole tramonta alle ore 20:06
| Data e Ora | Cielo e Fenomeni | T °C | DP °C | Um. % | Pres. hPa | Vis. km | Vento km/h | |
|---|---|---|---|---|---|---|---|---|
| Oggi h: 15:53 | Sereno | 37 | 21 | 39 | 1012 | 10 | SE 16.7 | |
| Oggi h: 14:53 | Sereno | 36 | 21 | 41 | 1013 | 10 | E 24 | |
| Oggi h: 13:53 | Sereno | 34 | 22 | 49 | 1014 | 10 | E/SE 20.3 | |
| Oggi h: 12:53 | Sereno | 33 | 22 | 52 | 1015 | 10 | E 18.5 | |
| Oggi h: 11:53 | Poco Nuvoloso | 31 | 22 | 58 | 1015 | 10 | E/SE 16.7 | |
| Oggi h: 11:06 | Nuvoloso | 29 | 22 | 66 | 1015 | 10 | E/SE 18.5 | |
| Oggi h: 10:53 | Molto Nuvoloso | 29 | 22 | 66 | 1015 | 10 | E 18.5 | |
| Oggi h: 10:39 | Nuvoloso | 29 | 22 | 66 | 1015 | 10 | E 18.5 | |
| Oggi h: 09:53 | Molto Nuvoloso | 28 | 23 | 74 | 1015 | 10 | E/SE 16.7 | |
| Oggi h: 08:53 | Sereno | 27 | 23 | 78 | 1015 | 10 | E 20.3 | |
| Oggi h: 07:53 | Sereno | 26 | 22 | 78 | 1015 | 10 | E 13 | |
| Oggi h: 06:53 | Sereno | 26 | 21 | 73 | 1014 | 10 | E 13 | |
| Oggi h: 05:53 | Sereno | 27 | 21 | 69 | 1014 | 10 | E 14.8 | |
| Oggi h: 04:53 | Sereno | 28 | 22 | 69 | 1014 | 10 | E 16.7 | |
| Oggi h: 03:53 | Sereno | 28 | 22 | 69 | 1013 | 10 | E/SE 16.7 | |
| Oggi h: 02:53 | Sereno | 29 | 22 | 66 | 1013 | 10 | E/SE 20.3 | |
| Oggi h: 01:53 | Sereno | 30 | 21 | 58 | 1013 | 10 | E/SE 25.9 | |
| Oggi h: 00:53 | Sereno | 31 | 20 | 52 | 1013 | 10 | E/SE 20.3 | |
| Ieri h: 23:53 | Sereno | 32 | 18 | 43 | 1012 | 10 | E 20.3 | |
| Ieri h: 22:53 | Sereno | 32 | 17 | 40 | 1012 | 10 | E 14.8 | |
| Ieri h: 21:53 | Sereno | 33 | 17 | 38 | 1011 | 10 | E 13 | |
| Ieri h: 20:53 | Sereno | 34 | 17 | 36 | 1011 | 10 | E 16.7 | |
| Ieri h: 19:53 | Sereno | 36 | 16 | 30 | 1010 | 10 | E 18.5 | |
| Ieri h: 18:53 | Poco Nuvoloso | 37 | 16 | 28 | 1010 | 10 | E 22.2 | |
| Ieri h: 17:53 | Poco Nuvoloso | 38 | 17 | 29 | 1010 | 10 | E/SE 18.5 | |
| Ieri h: 16:53 | Nuvoloso | 37 | 18 | 32 | 1010 | 10 | E/SE 18.5 | |



